Date String (YYYY-MM-DD hh:mm:ss) UTC,Instrument flags,Ambient pressure (hPa),Sample flow (lpm),Bypass flow (lpm),Sample temperature (°C),Ambient temperature (°C),ASC tube jacket temperature (°C),LED temperature (°C),Box temperature (°C),Sample RH (%),Span deviation,Mass concentration (μg/m³),Mass concentration (μg/m³),Mass concentration (μg/m³)
DateTimeUTC,F1_M11,P_M11,Q1_M11,Q2_M11,T1_M11,T2_M11,T3_M11,T4_M11,T5_M11,U1_M11,ZSPAN_M11,X0_M11,X2_M11,X1_M11
2022-08-29 23:00:00,,0829.9,4.99,0.00,29.5,28.3,00.0,38.1,31.4,22.5,0000.0,0020.85,0007.28,0005.99
2022-08-29 23:01:00,,0829.9,4.99,0.00,29.5,28.5,00.0,38.1,31.5,22.7,0000.0,0019.92,0007.27,0006.00
2022-08-29 23:02:00,,0829.9,5.00,0.00,29.6,27.9,00.0,38.1,31.5,23.0,0000.0,0020.12,0007.29,0006.00
2022-08-29 23:03:00,,0829.8,5.02,0.00,29.5,26.7,00.0,38.1,31.3,23.4,0000.0,0020.28,0007.30,0006.01
2022-08-29 23:04:00,,0829.9,5.00,0.00,29.5,26.5,00.0,38.1,31.3,23.5,0000.0,0021.08,0007.28,0006.03
2022-08-29 23:05:00,,0829.9,5.01,0.00,29.4,26.8,00.0,38.0,31.3,23.6,0000.0,0020.53,0007.30,0006.04
2022-08-29 23:06:00,,0829.9,5.00,0.00,29.4,27.1,00.0,38.0,31.1,23.1,0000.0,0020.33,0007.39,0006.06
2022-08-29 23:07:00,,0829.9,5.00,0.00,29.4,27.4,00.0,38.0,31.1,22.9,0000.0,0019.52,0007.37,0006.07
2022-08-29 23:08:00,,0829.9,5.00,0.00,29.4,27.7,00.0,38.0,31.2,23.0,0000.0,0018.82,0007.33,0006.06
2022-08-29 23:09:00,,0829.9,5.01,0.00,29.4,28.0,00.0,38.0,31.3,23.3,0000.0,0019.44,0007.29,0006.06
2022-08-29 23:10:00,,0829.9,5.00,0.00,29.5,28.2,00.0,38.1,31.4,23.7,0000.0,0020.50,0007.31,0006.05
2022-08-29 23:11:00,,0829.8,5.00,0.00,29.5,28.4,00.0,38.1,31.4,23.4,0000.0,0020.79,0007.31,0006.06
2022-08-29 23:12:00,,0829.9,4.98,0.00,29.6,28.5,00.0,38.1,31.5,23.2,0000.0,0021.26,0007.31,0006.06
2022-08-29 23:13:00,,0829.9,5.01,0.00,29.6,27.5,00.0,38.1,31.5,23.0,0000.0,0021.97,0007.35,0006.07
2022-08-29 23:14:00,,0829.8,5.00,0.00,29.5,26.5,00.0,38.1,31.4,23.0,0000.0,0021.38,0007.33,0006.06
2022-08-29 23:15:00,,0829.9,5.00,0.00,29.5,26.6,00.0,38.1,31.3,23.0,0000.0,0021.13,0007.33,0006.04
2022-08-29 23:16:00,,0829.9,5.01,0.00,29.4,26.9,00.0,38.1,31.2,22.6,0000.0,0021.09,0007.32,0006.02
2022-08-29 23:17:00,,0829.9,5.00,0.00,29.4,27.2,00.0,38.0,31.1,22.7,0000.0,0022.30,0007.31,0006.01
2022-08-29 23:18:00,,0829.9,5.00,0.00,29.4,27.5,00.0,38.0,31.2,22.7,0000.0,0023.17,0007.33,0006.01
2022-08-29 23:19:00,,0829.9,5.00,0.00,29.4,27.8,00.0,38.0,31.2,22.7,0000.0,0023.17,0007.28,0006.00
2022-08-29 23:20:00,,0829.9,5.00,0.00,29.5,28.0,00.0,38.1,31.3,22.7,0000.0,0022.58,0007.26,0005.99
2022-08-29 23:21:00,,0829.9,5.01,0.00,29.5,28.3,00.0,38.1,31.4,22.8,0000.0,0021.81,0007.21,0005.98
2022-08-29 23:22:00,,0829.8,4.98,0.00,29.5,28.5,00.0,38.1,31.5,22.6,0000.0,0023.06,0007.16,0005.96
2022-08-29 23:23:00,,0829.9,5.00,0.00,29.6,28.3,00.0,38.1,31.5,22.8,0000.0,0023.19,0007.18,0005.94
2022-08-29 23:24:00,,0829.8,5.00,0.00,29.6,27.1,00.0,38.1,31.4,22.7,0000.0,0022.63,0007.12,0005.91
2022-08-29 23:25:00,,0829.9,5.00,0.00,29.5,26.4,00.0,38.1,31.3,22.7,0000.0,0023.14,0007.10,0005.88
2022-08-29 23:26:00,,0829.8,4.99,0.00,29.5,26.6,00.0,38.1,31.3,22.7,0000.0,0023.51,0007.13,0005.87
2022-08-29 23:27:00,,0829.9,5.00,0.00,29.4,26.9,00.0,38.1,31.1,22.7,0000.0,0023.61,0007.14,0005.86
2022-08-29 23:28:00,,0829.8,5.01,0.00,29.4,27.2,00.0,38.0,31.1,22.7,0000.0,0023.65,0007.15,0005.87
2022-08-29 23:29:00,,0829.8,5.00,0.00,29.4,27.6,00.0,38.0,31.2,22.7,0000.0,0022.95,0007.13,0005.87
2022-08-29 23:30:00,,0829.9,5.00,0.00,29.4,27.8,00.0,38.0,31.2,22.8,0000.0,0023.44,0007.21,0005.88
2022-08-29 23:31:00,,0829.9,5.00,0.00,29.5,28.1,00.0,38.1,31.3,22.7,0000.0,0022.96,0007.24,0005.89
2022-08-29 23:32:00,,0830.0,5.01,0.00,29.5,28.3,00.0,38.1,31.4,22.7,0000.0,0022.46,0007.30,0005.90
2022-08-29 23:33:00,,0829.9,5.01,0.00,29.6,28.5,00.0,38.1,31.5,22.5,0000.0,0020.75,0007.32,0005.91
2022-08-29 23:34:00,,0829.9,4.98,0.00,29.6,28.0,00.0,38.1,31.5,22.6,0000.0,0020.10,0007.35,0005.93
2022-08-29 23:35:00,,0830.0,5.01,0.00,29.5,26.9,00.0,38.1,31.3,22.3,0000.0,0019.75,0007.38,0005.95
2022-08-29 23:36:00,,0829.9,5.00,0.00,29.5,26.6,00.0,38.1,31.3,22.2,0000.0,0019.84,0007.42,0005.97
2022-08-29 23:37:00,,0830.0,5.00,0.00,29.5,26.8,00.0,38.1,31.2,22.2,0000.0,0019.06,0007.42,0005.97
2022-08-29 23:38:00,,0829.8,5.00,0.00,29.4,27.1,00.0,38.0,31.1,22.4,0000.0,0018.97,0007.44,0005.97
2022-08-29 23:39:00,,0829.8,5.00,0.00,29.4,27.4,00.0,38.0,31.1,22.3,0000.0,0018.76,0007.40,0005.96
2022-08-29 23:40:00,,0829.8,5.00,0.00,29.4,27.7,00.0,38.0,31.2,22.4,0000.0,0019.14,0007.40,0005.96
2022-08-29 23:41:00,,0829.9,5.00,0.00,29.5,28.0,00.0,38.0,31.3,22.4,0000.0,0019.15,0007.33,0005.95
2022-08-29 23:42:00,,0829.8,5.00,0.00,29.5,28.2,00.0,38.1,31.4,22.4,0000.0,0019.63,0007.33,0005.96
2022-08-29 23:43:00,,0829.8,5.00,0.00,29.5,28.4,00.0,38.1,31.5,21.8,0000.0,0019.73,0007.33,0005.95
2022-08-29 23:44:00,,0829.8,5.00,0.00,29.6,28.1,00.0,38.1,31.5,21.2,0000.0,0019.86,0007.29,0005.95
2022-08-29 23:45:00,,0829.9,5.00,0.00,29.5,26.9,00.0,38.1,31.4,21.3,0000.0,0019.48,0007.25,0005.92
2022-08-29 23:46:00,,0829.9,5.00,0.00,29.5,26.5,00.0,38.1,31.3,21.6,0000.0,0019.83,0007.27,0005.90
2022-08-29 23:47:00,,0829.9,4.99,0.00,29.5,26.7,00.0,38.1,31.2,21.8,0000.0,0019.24,0007.17,0005.88
2022-08-29 23:48:00,,0829.8,4.99,0.00,29.4,27.0,00.0,38.0,31.1,21.9,0000.0,0019.36,0007.12,0005.87
2022-08-29 23:49:00,,0829.8,5.01,0.00,29.4,27.3,00.0,38.0,31.1,22.0,0000.0,0018.98,0007.07,0005.87
2022-08-29 23:50:00,,0829.8,5.00,0.00,29.4,27.6,00.0,38.0,31.2,21.8,0000.0,0019.62,0007.06,0005.86
2022-08-29 23:51:00,,0829.9,5.00,0.00,29.4,27.9,00.0,38.0,31.3,20.9,0000.0,0019.28,0007.02,0005.83
2022-08-29 23:52:00,,0829.9,5.00,0.00,29.5,28.2,00.0,38.1,31.4,20.6,0000.0,0019.96,0007.01,0005.80
2022-08-29 23:53:00,,0829.9,5.01,0.00,29.5,28.4,00.0,38.1,31.4,20.7,0000.0,0019.48,0006.95,0005.76
2022-08-29 23:54:00,,0829.9,5.01,0.00,29.6,28.5,00.0,38.1,31.5,20.5,0000.0,0019.75,0006.88,0005.75
2022-08-29 23:55:00,,0829.9,4.99,0.00,29.6,27.7,00.0,38.1,31.5,20.7,0000.0,0018.99,0006.86,0005.74
2022-08-29 23:56:00,,0830.0,5.00,0.00,29.5,26.6,00.0,38.1,31.3,20.7,0000.0,0019.11,0006.86,0005.73
2022-08-29 23:57:00,,0829.9,4.99,0.00,29.5,26.5,00.0,38.1,31.3,20.6,0000.0,0019.01,0006.79,0005.72
2022-08-29 23:58:00,,0829.9,5.01,0.00,29.4,26.8,00.0,38.1,31.2,21.0,0000.0,0020.14,0006.75,0005.71
2022-08-29 23:59:00,,0829.9,4.99,0.00,29.4,27.1,00.0,38.0,31.1,21.0,0000.0,0019.86,0006.73,0005.69
